When you browse on this site, cookies collect data to enhance your experience and personalize the content and advertising you see.
Visit our Privacy Policy to learn more. By continuing to use the site, you agree to this use of cookies and data.
  • en France
  • Liste des pays
  • À 7 jours
  • Température de l'eau
  • Carte satellitaire
  • Carte météo
  • Widgets météo
  • user-avatar
    Se connecter

    Météo par heure à Orléans

    Ce jour, 17 Février, Dimanche

    Heure Température Précipitation Vent Pression Humidité
    00:00 +7°C° 0 mm 2 m/s 757 mmHg 73%
    01:00 +7°C° 0 mm 2 m/s 756 mmHg 74%
    02:00 +6°C° 0 mm 2 m/s 756 mmHg 75%
    03:00 +6°C° 0 mm 2 m/s 756 mmHg 76%
    04:00 +6°C° 0 mm 2 m/s 756 mmHg 74%
    05:00 +5°C° 0 mm 2 m/s 755 mmHg 71%
    06:00 +4°C° 0 mm 3 m/s 755 mmHg 68%
    07:00 +5°C° 0 mm 3 m/s 755 mmHg 62%
    08:00 +7°C° 0 mm 3 m/s 755 mmHg 56%
    09:00 +7°C° 0 mm 4 m/s 755 mmHg 49%
    10:00 +10°C° 0 mm 4 m/s 755 mmHg 47%
    11:00 +12°C° 0 mm 4 m/s 755 mmHg 44%
    12:00 +13°C° 0 mm 4 m/s 755 mmHg 41%
    13:00 +14°C° 0 mm 4 m/s 755 mmHg 42%
    14:00 +16°C° 0 mm 3 m/s 755 mmHg 43%
    15:00 +16°C° 0 mm 3 m/s 754 mmHg 43%
    16:00 +14°C° 0 mm 3 m/s 754 mmHg 50%
    17:00 +13°C° 0 mm 2 m/s 754 mmHg 57%
    18:00 +10°C° 0 mm 2 m/s 754 mmHg 64%
    19:00 +9°C° 0 mm 2 m/s 754 mmHg 67%
    20:00 +9°C° 0 mm 2 m/s 754 mmHg 70%
    21:00 +8°C° 0 mm 2 m/s 754 mmHg 73%
    22:00 +8°C° 0 mm 2 m/s 754 mmHg 75%
    23:00 +7°C° 0 mm 2 m/s 754 mmHg 77%

    Demain, 18 Février, Lundi

    Heure Température Précipitation Vent Pression Humidité
    00:00 +7°C° 0 mm 2 m/s 755 mmHg 78%
    01:00 +6°C° 0 mm 2 m/s 754 mmHg 80%
    02:00 +6°C° 0 mm 2 m/s 754 mmHg 82%
    03:00 +6°C° 0 mm 2 m/s 754 mmHg 83%
    04:00 +5°C° 0 mm 2 m/s 754 mmHg 83%
    05:00 +5°C° 0 mm 2 m/s 754 mmHg 82%
    06:00 +4°C° 0 mm 2 m/s 754 mmHg 82%
    07:00 +5°C° 0 mm 2 m/s 754 mmHg 77%
    08:00 +6°C° 0 mm 2 m/s 754 mmHg 73%
    09:00 +7°C° 0 mm 3 m/s 754 mmHg 68%
    10:00 +9°C° 0 mm 3 m/s 754 mmHg 65%
    11:00 +10°C° 0 mm 3 m/s 754 mmHg 62%
    12:00 +12°C° 0 mm 3 m/s 754 mmHg 59%
    13:00 +13°C° 0 mm 3 m/s 753 mmHg 59%
    14:00 +13°C° 0 mm 3 m/s 753 mmHg 59%
    15:00 +13°C° 0 mm 3 m/s 753 mmHg 59%
    16:00 +12°C° 0 mm 3 m/s 753 mmHg 65%
    17:00 +12°C° 0 mm 2 m/s 753 mmHg 71%
    18:00 +10°C° 0 mm 2 m/s 753 mmHg 77%
    19:00 +9°C° 0 mm 2 m/s 754 mmHg 80%
    20:00 +9°C° 0 mm 2 m/s 754 mmHg 83%
    21:00 +8°C° 0 mm 2 m/s 754 mmHg 86%
    22:00 +9°C° 0 mm 1 m/s 754 mmHg 88%
    23:00 +9°C° 0 mm 1 m/s 754 mmHg 90%

    Après-demain, 19 Février, Mardi

    Heure Température Précipitation Vent Pression Humidité
    00:00 +8°C° 0 mm 1 m/s 755 mmHg 92%
    01:00 +8°C° 0 mm 1 m/s 755 mmHg 93%
    02:00 +7°C° 0 mm 1 m/s 755 mmHg 94%
    03:00 +7°C° 0 mm 1 m/s 755 mmHg 95%
    04:00 +7°C° 0 mm 1 m/s 755 mmHg 95%
    05:00 +7°C° 0 mm 1 m/s 755 mmHg 95%
    06:00 +7°C° 0 mm 1 m/s 756 mmHg 95%
    07:00 +8°C° 0 mm 1 m/s 756 mmHg 93%
    08:00 +9°C° 0 mm 1 m/s 757 mmHg 91%
    09:00 +9°C° 0 mm 1 m/s 757 mmHg 89%
    10:00 +10°C° 0 mm 1 m/s 757 mmHg 84%
    11:00 +11°C° 0 mm 1 m/s 757 mmHg 79%
    12:00 +12°C° 0 mm 1 m/s 757 mmHg 74%
    13:00 +12°C° 0 mm 1 m/s 757 mmHg 71%
    14:00 +12°C° 0 mm 1 m/s 757 mmHg 68%
    15:00 +13°C° 0 mm 1 m/s 756 mmHg 65%
    16:00 +12°C° 0 mm 1 m/s 756 mmHg 70%
    17:00 +10°C° 0 mm 1 m/s 756 mmHg 74%
    18:00 +9°C° 0 mm 1 m/s 757 mmHg 79%
    19:00 +9°C° 0 mm 1 m/s 757 mmHg 83%
    20:00 +8°C° 0 mm 1 m/s 757 mmHg 86%
    21:00 +7°C° 0 mm 1 m/s 757 mmHg 90%
    22:00 +7°C° 0 mm 1 m/s 757 mmHg 90%
    23:00 +7°C° 0 mm 1 m/s 757 mmHg 91%

    20 Février, Mercredi

    Heure Température Précipitation Vent Pression Humidité
    00:00 +7°C° 0 mm 1 m/s 757 mmHg 92%
    01:00 +6°C° 0 mm 1 m/s 757 mmHg 92%
    02:00 +6°C° 0 mm 1 m/s 757 mmHg 93%
    03:00 +6°C° 0 mm 1 m/s 757 mmHg 93%
    04:00 +6°C° 0 mm 1 m/s 757 mmHg 93%
    05:00 +5°C° 0 mm 1 m/s 757 mmHg 93%
    06:00 +5°C° 0 mm 1 m/s 757 mmHg 94%
    07:00 +6°C° 0 mm 1 m/s 757 mmHg 90%
    08:00 +7°C° 0 mm 1 m/s 758 mmHg 87%
    09:00 +8°C° 0 mm 1 m/s 758 mmHg 84%
    10:00 +9°C° 0 mm 2 m/s 758 mmHg 78%
    11:00 +12°C° 0 mm 2 m/s 758 mmHg 72%
    12:00 +14°C° 0 mm 2 m/s 758 mmHg 66%
    13:00 +14°C° 0 mm 2 m/s 758 mmHg 63%
    14:00 +15°C° 0 mm 2 m/s 758 mmHg 60%
    15:00 +15°C° 0 mm 2 m/s 758 mmHg 57%
    16:00 +14°C° 0 mm 1 m/s 758 mmHg 64%
    17:00 +12°C° 0 mm 1 m/s 758 mmHg 70%
    18:00 +11°C° 0 mm 1 m/s 758 mmHg 77%
    19:00 +10°C° 0 mm 1 m/s 759 mmHg 79%
    20:00 +10°C° 0 mm 1 m/s 759 mmHg 80%
    21:00 +9°C° 0 mm 1 m/s 759 mmHg 82%
    22:00 +9°C° 0 mm 1 m/s 759 mmHg 84%
    23:00 +9°C° 0 mm 1 m/s 759 mmHg 85%

    21 Février, Jeudi

    Heure Température Précipitation Vent Pression Humidité
    00:00 +8°C° 0 mm 1 m/s 760 mmHg 86%
    01:00 +8°C° 0 mm 1 m/s 760 mmHg 87%
    02:00 +8°C° 0 mm 1 m/s 760 mmHg 88%
    03:00 +7°C° 0 mm 1 m/s 760 mmHg 90%
    04:00 +7°C° 0 mm 1 m/s 760 mmHg 90%
    05:00 +7°C° 0 mm 1 m/s 760 mmHg 90%
    06:00 +7°C° 0 mm 1 m/s 760 mmHg 90%
    07:00 +8°C° 0 mm 1 m/s 761 mmHg 86%
    08:00 +9°C° 0 mm 1 m/s 761 mmHg 81%
    09:00 +10°C° 0 mm 1 m/s 762 mmHg 77%
    10:00 +12°C° 0 mm 1 m/s 762 mmHg 70%
    11:00 +14°C° 0 mm 1 m/s 762 mmHg 64%
    12:00 +16°C° 0 mm 1 m/s 762 mmHg 58%
    13:00 +16°C° 0 mm 1 m/s 762 mmHg 55%
    14:00 +16°C° 0 mm 1 m/s 761 mmHg 53%
    15:00 +16°C° 0 mm 0 m/s 761 mmHg 51%
    16:00 +14°C° 0 mm 0 m/s 761 mmHg 56%
    17:00 +12°C° 0 mm 0 m/s 761 mmHg 62%
    18:00 +11°C° 0 mm 0 m/s 762 mmHg 67%
    19:00 +11°C° 0 mm 1 m/s 762 mmHg 70%
    20:00 +11°C° 0 mm 1 m/s 762 mmHg 72%
    21:00 +10°C° 0 mm 1 m/s 763 mmHg 74%
    22:00 +10°C° 0 mm 1 m/s 763 mmHg 76%
    23:00 +9°C° 0 mm 1 m/s 763 mmHg 78%

    22 Février, Vendredi

    Heure Température Précipitation Vent Pression Humidité
    00:00 +9°C° 0 mm 1 m/s 764 mmHg 80%
    01:00 +9°C° 0 mm 1 m/s 764 mmHg 82%
    02:00 +8°C° 0 mm 1 m/s 763 mmHg 84%
    03:00 +8°C° 0 mm 1 m/s 763 mmHg 85%
    04:00 +8°C° 0 mm 1 m/s 763 mmHg 86%
    05:00 +7°C° 0 mm 1 m/s 764 mmHg 87%
    06:00 +7°C° 0 mm 1 m/s 764 mmHg 88%
    07:00 +8°C° 0 mm 1 m/s 764 mmHg 84%
    08:00 +8°C° 0 mm 2 m/s 764 mmHg 80%
    09:00 +9°C° 0 mm 2 m/s 764 mmHg 77%
    10:00 +12°C° 0 mm 2 m/s 764 mmHg 71%
    11:00 +14°C° 0 mm 2 m/s 764 mmHg 64%
    12:00 +14°C° 0 mm 3 m/s 764 mmHg 58%
    13:00 +14°C° 0 mm 3 m/s 764 mmHg 57%
    14:00 +16°C° 0 mm 3 m/s 764 mmHg 55%
    15:00 +16°C° 0 mm 3 m/s 763 mmHg 54%
    16:00 +13°C° 0 mm 3 m/s 763 mmHg 62%
    17:00 +12°C° 0 mm 3 m/s 763 mmHg 69%
    18:00 +10°C° 0 mm 3 m/s 763 mmHg 76%
    19:00 +10°C° 0 mm 3 m/s 763 mmHg 80%
    20:00 +9°C° 0 mm 3 m/s 763 mmHg 83%
    21:00 +9°C° 0 mm 3 m/s 763 mmHg 87%
    22:00 +8°C° 0 mm 3 m/s 763 mmHg 88%
    23:00 +8°C° 0 mm 2 m/s 763 mmHg 90%
    Voir plus